TimeEDT,TemperatureF,Dew PointF,Humidity,Sea Level PressureIn,VisibilityMPH,Wind Direction,Wind SpeedMPH,Gust SpeedMPH,PrecipitationIn,Events,Conditions,WindDirDegrees,DateUTC
12:16 AM,49.8,47.1,90,29.98,10.0,Calm,Calm,-,N/A,,Clear,0,2012-09-30 04:16:00
12:35 AM,45.7,44.1,94,29.98,10.0,Calm,Calm,-,N/A,,Clear,0,2012-09-30 04:35:00
12:55 AM,47.3,46.4,97,29.98,10.0,Calm,Calm,-,N/A,,Clear,0,2012-09-30 04:55:00
1:16 AM,46.2,46.0,99,29.97,10.0,Calm,Calm,-,N/A,,Clear,0,2012-09-30 05:16:00
1:35 AM,44.6,43.9,97,29.97,10.0,Calm,Calm,-,N/A,,Clear,0,2012-09-30 05:35:00
1:55 AM,43.9,43.7,99,29.97,0.8,Calm,Calm,-,N/A,,Mist,0,2012-09-30 05:55:00
2:15 AM,44.8,44.6,99,29.97,1.8,Calm,Calm,-,N/A,,Mist,0,2012-09-30 06:15:00
2:35 AM,43.0,43.0,100,29.97,2.5,Calm,Calm,-,N/A,,Clear,0,2012-09-30 06:35:00
2:55 AM,42.8,42.8,100,29.96,1.2,Calm,Calm,-,N/A,,Mist,0,2012-09-30 06:55:00
3:15 AM,43.7,43.7,100,29.96,5.0,Calm,Calm,-,N/A,,Mostly Cloudy,0,2012-09-30 07:15:00
3:35 AM,45.9,45.9,100,29.96,0.5,Calm,Calm,-,N/A,Fog,Fog,0,2012-09-30 07:35:00
3:55 AM,46.6,46.6,100,29.94,0.5,Calm,Calm,-,N/A,Fog,Fog,0,2012-09-30 07:55:00
4:15 AM,48.2,48.2,100,29.94,4.0,Calm,Calm,-,N/A,,Mostly Cloudy,0,2012-09-30 08:15:00
4:35 AM,48.0,48.0,100,29.95,7.0,Calm,Calm,-,N/A,,Overcast,0,2012-09-30 08:35:00
4:55 AM,49.1,49.1,100,29.96,10.0,NW,4.6,-,N/A,,Overcast,320,2012-09-30 08:55:00
5:15 AM,49.5,49.5,100,29.96,10.0,NNW,4.6,-,N/A,,Overcast,330,2012-09-30 09:15:00
5:36 AM,49.5,49.5,100,29.96,7.0,North,4.6,-,N/A,,Overcast,350,2012-09-30 09:36:00
5:55 AM,49.1,49.1,100,29.96,10.0,North,5.8,-,N/A,,Overcast,360,2012-09-30 09:55:00
6:15 AM,49.3,49.3,100,29.96,10.0,North,4.6,-,N/A,,Overcast,360,2012-09-30 10:15:00
6:36 AM,49.5,49.5,100,29.96,10.0,North,4.6,-,N/A,,Overcast,360,2012-09-30 10:36:00
6:55 AM,49.3,49.3,100,29.95,10.0,Calm,Calm,-,N/A,,Overcast,0,2012-09-30 10:55:00
7:15 AM,48.4,48.4,100,29.96,10.0,Calm,Calm,-,N/A,,Scattered Clouds,0,2012-09-30 11:15:00
7:35 AM,47.3,47.1,99,29.96,10.0,Calm,Calm,-,N/A,,Scattered Clouds,0,2012-09-30 11:35:00
7:55 AM,47.5,47.5,100,29.97,10.0,Calm,Calm,-,N/A,,Scattered Clouds,0,2012-09-30 11:55:00
8:15 AM,48.6,48.6,100,29.96,10.0,North,3.5,-,N/A,,Clear,10,2012-09-30 12:15:00
8:35 AM,50.0,49.6,99,29.97,10.0,North,3.5,-,N/A,,Clear,360,2012-09-30 12:35:00
8:55 AM,51.3,50.0,95,29.97,10.0,NNE,3.5,-,N/A,,Clear,20,2012-09-30 12:55:00
9:15 AM,52.3,49.8,91,29.98,10.0,North,8.1,-,N/A,,Clear,10,2012-09-30 13:15:00
9:35 AM,54.0,49.3,84,29.99,10.0,North,5.8,-,N/A,,Clear,10,2012-09-30 13:35:00
9:55 AM,55.8,48.9,78,29.99,10.0,North,6.9,-,N/A,,Clear,360,2012-09-30 13:55:00
10:16 AM,57.0,49.1,75,29.99,10.0,NNE,10.4,-,N/A,,Clear,20,2012-09-30 14:16:00
10:35 AM,58.1,48.0,69,29.99,10.0,NNE,11.5,19.6,N/A,,Clear,30,2012-09-30 14:35:00
10:55 AM,59.9,46.9,62,29.99,10.0,NNE,12.7,17.3,N/A,,Scattered Clouds,30,2012-09-30 14:55:00
11:16 AM,60.1,45.9,59,29.98,10.0,NNE,12.7,19.6,N/A,,Scattered Clouds,20,2012-09-30 15:16:00
11:35 AM,60.4,45.3,57,29.99,10.0,NNE,10.4,16.1,N/A,,Scattered Clouds,20,2012-09-30 15:35:00
11:55 AM,61.5,43.7,52,29.98,10.0,NNE,10.4,16.1,N/A,,Mostly Cloudy,20,2012-09-30 15:55:00
12:16 PM,63.0,44.6,51,29.98,10.0,ENE,6.9,16.1,N/A,,Mostly Cloudy,60,2012-09-30 16:16:00
12:35 PM,64.4,43.3,46,29.98,10.0,East,8.1,17.3,N/A,,Mostly Cloudy,80,2012-09-30 16:35:00
12:55 PM,61.9,43.2,50,29.98,10.0,NE,6.9,-,N/A,,Mostly Cloudy,40,2012-09-30 16:55:00
1:15 PM,61.9,42.3,49,29.97,10.0,North,10.4,-,N/A,,Mostly Cloudy,10,2012-09-30 17:15:00
1:35 PM,61.7,42.8,50,29.98,10.0,NNE,5.8,-,N/A,,Mostly Cloudy,30,2012-09-30 17:35:00
1:55 PM,63.0,43.9,50,29.97,10.0,North,10.4,-,N/A,,Mostly Cloudy,10,2012-09-30 17:55:00
2:15 PM,61.7,44.8,54,29.96,10.0,NNE,6.9,-,N/A,,Overcast,20,2012-09-30 18:15:00
2:35 PM,62.6,44.4,51,29.96,10.0,NE,9.2,-,N/A,,Mostly Cloudy,50,2012-09-30 18:35:00
2:55 PM,63.7,43.2,47,29.96,10.0,North,8.1,-,N/A,,Mostly Cloudy,360,2012-09-30 18:55:00
3:15 PM,62.8,42.8,48,29.96,10.0,NNE,4.6,-,N/A,,Overcast,30,2012-09-30 19:15:00
3:35 PM,64.4,43.0,46,29.96,10.0,NE,5.8,-,N/A,,Mostly Cloudy,50,2012-09-30 19:35:00
4:15 PM,62.2,45.7,55,29.94,10.0,North,6.9,-,N/A,,Overcast,10,2012-09-30 20:15:00
4:36 PM,61.7,46.4,57,29.94,10.0,North,5.8,-,N/A,,Overcast,360,2012-09-30 20:36:00
4:55 PM,61.9,46.6,57,29.94,10.0,NNE,6.9,-,N/A,,Overcast,20,2012-09-30 20:55:00
5:15 PM,61.7,46.2,57,29.94,10.0,NNE,5.8,-,N/A,,Overcast,20,2012-09-30 21:15:00
5:36 PM,61.7,46.2,57,29.94,10.0,NE,6.9,-,N/A,,Overcast,40,2012-09-30 21:36:00
5:55 PM,61.0,46.6,59,29.94,10.0,NNE,5.8,-,N/A,,Overcast,30,2012-09-30 21:55:00
6:15 PM,60.4,47.3,62,29.94,10.0,North,6.9,-,N/A,,Overcast,10,2012-09-30 22:15:00
6:35 PM,60.1,47.5,63,29.94,10.0,North,3.5,-,N/A,,Overcast,10,2012-09-30 22:35:00
6:55 PM,59.9,48.2,65,29.95,10.0,Calm,Calm,-,N/A,,Overcast,0,2012-09-30 22:55:00
7:15 PM,59.2,48.6,68,29.96,10.0,Calm,Calm,-,N/A,,Overcast,0,2012-09-30 23:15:00
7:35 PM,58.8,48.2,68,29.96,10.0,Calm,Calm,-,N/A,,Overcast,0,2012-09-30 23:35:00
7:55 PM,58.3,48.4,70,29.97,10.0,NNE,3.5,-,N/A,,Overcast,30,2012-09-30 23:55:00
8:15 PM,58.1,48.6,71,29.97,10.0,Calm,Calm,-,N/A,,Overcast,0,2012-10-01 00:15:00
8:35 PM,57.6,49.1,73,29.97,10.0,Calm,Calm,-,N/A,,Overcast,0,2012-10-01 00:35:00
8:55 PM,56.5,49.1,76,29.97,10.0,Calm,Calm,-,N/A,,Overcast,0,2012-10-01 00:55:00
9:15 PM,55.8,48.6,77,29.98,10.0,Calm,Calm,-,N/A,,Scattered Clouds,0,2012-10-01 01:15:00
9:35 PM,51.8,48.4,88,29.98,10.0,Calm,Calm,-,N/A,,Clear,0,2012-10-01 01:35:00
10:15 PM,48.9,47.8,96,29.97,10.0,Calm,Calm,-,N/A,,Clear,0,2012-10-01 02:15:00
10:35 PM,48.9,48.2,97,29.97,10.0,Calm,Calm,-,N/A,,Clear,0,2012-10-01 02:35:00
10:56 PM,45.9,45.5,99,29.97,10.0,Calm,Calm,-,N/A,,Clear,0,2012-10-01 02:56:00
11:15 PM,46.8,46.2,98,29.96,10.0,Calm,Calm,-,N/A,,Clear,0,2012-10-01 03:15:00
11:35 PM,45.0,45.0,100,29.96,10.0,Calm,Calm,-,N/A,,Clear,0,2012-10-01 03:35:00
11:55 PM,45.0,44.6,99,29.96,7.0,Calm,Calm,-,N/A,,Clear,0,2012-10-01 03:55:00